When you browse on this site, cookies collect data to enhance your experience and personalize the content and advertising you see.
Visit our Privacy Policy to learn more. By continuing to use the site, you agree to this use of cookies and data.
  • In Germany
  • List of Countries
  • For 7 days
  • Water Temperature
  • Weather Map
  • Weather Widgets
  • user-avatar
    Login

    Hourly Weather Korçe

    Today, 10 December, Tuesday

    Time Temperature Precipitation Wind Pressure Humidity
    00:00 +4°C° 0.1 mm 2 mps 660 mmHg 91%
    01:00 +4°C° 0 mm 2 mps 660 mmHg 93%
    02:00 +4°C° 0.4 mm 2 mps 660 mmHg 92%
    03:00 +4°C° 0.4 mm 2 mps 660 mmHg 91%
    04:00 +4°C° 0.4 mm 2 mps 659 mmHg 91%
    05:00 +5°C° 0.5 mm 1 mps 659 mmHg 91%
    06:00 +5°C° 0.5 mm 1 mps 659 mmHg 92%
    07:00 +5°C° 0 mm 1 mps 660 mmHg 91%
    08:00 +5°C° 1.3 mm 1 mps 660 mmHg 92%
    09:00 +5°C° 1.3 mm 1 mps 659 mmHg 93%
    10:00 +5°C° 1.3 mm 1 mps 659 mmHg 94%
    11:00 +5°C° 1.1 mm 1 mps 659 mmHg 94%
    12:00 +5°C° 1.1 mm 1 mps 659 mmHg 94%
    13:00 +5°C° 1.1 mm 1 mps 659 mmHg 93%
    14:00 +5°C° 1.2 mm 1 mps 658 mmHg 93%
    15:00 +5°C° 1.2 mm 1 mps 658 mmHg 94%
    16:00 +5°C° 1.2 mm 1 mps 658 mmHg 94%
    17:00 +5°C° 0.5 mm 1 mps 658 mmHg 94%
    18:00 +5°C° 0.5 mm 1 mps 658 mmHg 93%
    19:00 +5°C° 0.5 mm 1 mps 658 mmHg 93%
    20:00 +5°C° 0.2 mm 1 mps 658 mmHg 93%
    21:00 +5°C° 0.2 mm 1 mps 658 mmHg 93%
    22:00 +5°C° 0.2 mm 1 mps 658 mmHg 93%
    23:00 +5°C° 0.5 mm 1 mps 658 mmHg 93%

    Tomorrow, 11 December, Wednesday

    Time Temperature Precipitation Wind Pressure Humidity
    00:00 +5°C° 0.5 mm 1 mps 658 mmHg 93%
    01:00 +3°C° 0.5 mm 2 mps 658 mmHg 93%
    02:00 +3°C° 0.6 mm 2 mps 658 mmHg 94%
    03:00 +3°C° 0.6 mm 2 mps 658 mmHg 94%
    04:00 +3°C° 0.6 mm 2 mps 657 mmHg 94%
    05:00 +3°C° 0.3 mm 2 mps 658 mmHg 94%
    06:00 +3°C° 0.3 mm 2 mps 658 mmHg 93%
    07:00 +3°C° 0.3 mm 2 mps 658 mmHg 93%
    08:00 +3°C° 0.2 mm 2 mps 658 mmHg 91%
    09:00 +3°C° 0.2 mm 2 mps 659 mmHg 88%
    10:00 +4°C° 0.2 mm 2 mps 659 mmHg 86%
    11:00 +4°C° 0 mm 2 mps 659 mmHg 84%
    12:00 +4°C° 0 mm 2 mps 659 mmHg 82%
    13:00 +5°C° 0 mm 2 mps 659 mmHg 80%
    14:00 +4°C° 0 mm 2 mps 659 mmHg 82%
    15:00 +4°C° 0 mm 2 mps 658 mmHg 83%
    16:00 +3°C° 0 mm 2 mps 658 mmHg 85%
    17:00 +3°C° 0 mm 2 mps 658 mmHg 87%
    18:00 +2°C° 0 mm 2 mps 658 mmHg 88%
    19:00 +2°C° 0 mm 2 mps 658 mmHg 90%
    20:00 +1°C° 0 mm 2 mps 658 mmHg 90%
    21:00 +1°C° 0 mm 2 mps 658 mmHg 90%
    22:00 +1°C° 0 mm 2 mps 658 mmHg 90%
    23:00 +1°C° 0 mm 2 mps 658 mmHg 90%

    Day after tomorrow, 12 December, Thursday

    Time Temperature Precipitation Wind Pressure Humidity
    00:00 +1°C° 0 mm 2 mps 658 mmHg 90%
    01:00 +1°C° 0 mm 2 mps 658 mmHg 90%
    02:00 +1°C° 0 mm 2 mps 657 mmHg 91%
    03:00 +1°C° 0 mm 2 mps 657 mmHg 91%
    04:00 +2°C° 0 mm 1 mps 657 mmHg 91%
    05:00 +1°C° 0 mm 1 mps 657 mmHg 91%
    06:00 +1°C° 0 mm 1 mps 657 mmHg 91%
    07:00 +1°C° 0 mm 1 mps 657 mmHg 91%
    08:00 +3°C° 0 mm 1 mps 658 mmHg 86%
    09:00 +5°C° 0 mm 1 mps 658 mmHg 81%
    10:00 +6°C° 0 mm 1 mps 659 mmHg 75%
    11:00 +7°C° 0 mm 1 mps 659 mmHg 73%
    12:00 +7°C° 0 mm 1 mps 659 mmHg 70%
    13:00 +8°C° 0 mm 1 mps 659 mmHg 67%
    14:00 +7°C° 0.1 mm 1 mps 658 mmHg 73%
    15:00 +6°C° 0.1 mm 1 mps 658 mmHg 78%
    16:00 +5°C° 0.1 mm 1 mps 658 mmHg 84%
    17:00 +5°C° 0.1 mm 1 mps 658 mmHg 86%
    18:00 +4°C° 0.1 mm 1 mps 658 mmHg 89%
    19:00 +4°C° 0.1 mm 1 mps 658 mmHg 91%
    20:00 +4°C° 0 mm 1 mps 658 mmHg 92%
    21:00 +3°C° 0 mm 1 mps 658 mmHg 94%
    22:00 +3°C° 0 mm 1 mps 658 mmHg 95%
    23:00 +3°C° 0 mm 1 mps 657 mmHg 95%

    13 December, Friday

    Time Temperature Precipitation Wind Pressure Humidity
    00:00 +3°C° 0 mm 1 mps 657 mmHg 95%
    01:00 +2°C° 0 mm 1 mps 657 mmHg 95%
    02:00 +1°C° 0 mm 2 mps 657 mmHg 94%
    03:00 +2°C° 0 mm 2 mps 657 mmHg 94%
    04:00 +2°C° 0 mm 2 mps 656 mmHg 93%
    05:00 +2°C° 0.1 mm 2 mps 657 mmHg 94%
    06:00 +3°C° 0.1 mm 1 mps 657 mmHg 94%
    07:00 +3°C° 0.1 mm 1 mps 657 mmHg 95%
    08:00 +4°C° 0.3 mm 1 mps 657 mmHg 93%
    09:00 +4°C° 0.3 mm 1 mps 657 mmHg 92%
    10:00 +4°C° 0.3 mm 1 mps 657 mmHg 90%
    11:00 +4°C° 0.2 mm 2 mps 657 mmHg 87%
    12:00 +4°C° 0.2 mm 2 mps 657 mmHg 84%
    13:00 +5°C° 0.2 mm 2 mps 656 mmHg 81%
    14:00 +4°C° 0.1 mm 2 mps 656 mmHg 83%
    15:00 +4°C° 0.1 mm 2 mps 655 mmHg 85%
    16:00 +3°C° 0.1 mm 2 mps 655 mmHg 87%
    17:00 +3°C° 0 mm 2 mps 655 mmHg 89%
    18:00 +2°C° 0 mm 3 mps 654 mmHg 91%
    19:00 +1°C° 0 mm 3 mps 654 mmHg 93%
    20:00 +1°C° 0 mm 3 mps 654 mmHg 93%
    21:00 +2°C° 0 mm 3 mps 653 mmHg 93%
    22:00 +1°C° 0 mm 4 mps 653 mmHg 93%
    23:00 +1°C° 0.4 mm 4 mps 652 mmHg 94%

    14 December, Saturday

    Time Temperature Precipitation Wind Pressure Humidity
    00:00 +1°C° 0.4 mm 4 mps 652 mmHg 94%
    01:00 +1°C° 0.4 mm 4 mps 651 mmHg 95%
    02:00 +1°C° 3 mm 4 mps 650 mmHg 95%
    03:00 +1°C° 3 mm 4 mps 650 mmHg 96%
    04:00 +3°C° 3 mm 3 mps 649 mmHg 96%
    05:00 +2°C° 4.5 mm 3 mps 649 mmHg 96%
    06:00 +2°C° 4.5 mm 3 mps 649 mmHg 96%
    07:00 +1°C° 4.5 mm 3 mps 649 mmHg 96%
    08:00 +1°C° 3.3 mm 3 mps 650 mmHg 96%
    09:00 +1°C° 3.3 mm 3 mps 650 mmHg 95%
    10:00 +1°C° 3.3 mm 3 mps 651 mmHg 95%
    11:00 +3°C° 0.4 mm 2 mps 652 mmHg 93%
    12:00 +4°C° 0.4 mm 2 mps 653 mmHg 91%
    13:00 +5°C° 0.4 mm 2 mps 654 mmHg 89%
    14:00 +5°C° 0.1 mm 2 mps 654 mmHg 90%
    15:00 +4°C° 0.1 mm 2 mps 655 mmHg 91%
    16:00 +4°C° 0.1 mm 2 mps 656 mmHg 92%
    17:00 +4°C° 0 mm 2 mps 657 mmHg 92%
    18:00 +4°C° 0 mm 2 mps 658 mmHg 92%
    19:00 +3°C° 0 mm 2 mps 659 mmHg 92%
    20:00 +3°C° 0 mm 2 mps 660 mmHg 92%
    21:00 +3°C° 0 mm 2 mps 661 mmHg 92%
    22:00 +4°C° 0 mm 1 mps 661 mmHg 92%
    23:00 +4°C° 0 mm 1 mps 662 mmHg 91%

    15 December, Sunday

    Time Temperature Precipitation Wind Pressure Humidity
    00:00 +4°C° 0 mm 1 mps 662 mmHg 90%
    01:00 +4°C° 0 mm 1 mps 663 mmHg 90%
    02:00 +4°C° 0 mm 1 mps 663 mmHg 89%
    03:00 +4°C° 0 mm 1 mps 664 mmHg 89%
    04:00 +4°C° 0 mm 1 mps 664 mmHg 89%
    05:00 +4°C° 0 mm 1 mps 664 mmHg 88%
    06:00 +4°C° 0 mm 1 mps 665 mmHg 88%
    07:00 +4°C° 0 mm 1 mps 665 mmHg 88%
    08:00 +6°C° 0 mm 1 mps 666 mmHg 85%
    09:00 +7°C° 0 mm 1 mps 667 mmHg 82%
    10:00 +9°C° 0 mm 1 mps 668 mmHg 79%
    11:00 +10°C° 0 mm 1 mps 668 mmHg 76%
    12:00 +10°C° 0 mm 1 mps 668 mmHg 73%
    13:00 +11°C° 0 mm 1 mps 669 mmHg 70%
    14:00 +10°C° 0 mm 1 mps 669 mmHg 75%
    15:00 +9°C° 0 mm 1 mps 669 mmHg 80%
    16:00 +8°C° 0 mm 1 mps 668 mmHg 85%
    17:00 +7°C° 0 mm 1 mps 669 mmHg 86%
    18:00 +7°C° 0 mm 1 mps 669 mmHg 87%
    19:00 +6°C° 0 mm 1 mps 669 mmHg 87%
    20:00 +6°C° 0 mm 1 mps 669 mmHg 87%
    21:00 +6°C° 0 mm 1 mps 670 mmHg 87%
    22:00 +6°C° 0 mm 1 mps 670 mmHg 87%
    23:00 +6°C° 0 mm 1 mps 670 mmHg 87%
    Show more